Station SANF1 - Sand Key, FL Image indicating link to RSS feed of recent meteorological observations for station SANF1


Conditions at SANF1 as of
(3:00 am EDT)
0700 GMT on 06/24/2024:
     

Click on the graph icon in the table below to see a time series plot of the last five days of that observation.

5-day plot - Wind Direction Wind Direction (WDIR):SSE ( 160 deg true )
5-day plot - Wind Speed Wind Speed (WSPD): 7 kts
5-day plot - Wind Gust Wind Gust (GST): 9 kts
5-day plot - Atmospheric Pressure Atmospheric Pressure (PRES):29.93 in
5-day plot - Pressure Tendency Pressure Tendency (PTDY):-0.03 in ( Falling )
5-day plot - Air Temperature Air Temperature (ATMP): 81.5 °F
5-day plot - Dew Point Dew Point (DEWP): 73.8 °F
5-day plot - Heat Index Heat Index (HEAT): 87.1 °F
5-day plot - Wind Speed at 10 Meters Wind Speed at 10 meters (WSPD10M): 6 kts
5-day plot - Wind Speed at 20 Meters Wind Speed at 20 meters (WSPD20M): 8 kts
5-day plot -  Wind Speed, Wind Gust and Atmospheric Pressure Combined plot of Wind Speed, Gust, and Air Pressure
Supplemental Measurements
Highest 1-minute Wind Speed
Time (EDT)5-day plot - 1-Minute Wind Speed WSPD 5-day plot - 1-Minute Wind Direction WDIR
2:53 am 8 kts-
Previous observations
TIME
(EDT)
5-day plot - Wind Direction
WDIR
 
5-day plot - Wind Speed
WSPD
kts
5-day plot - Wind Gust
GST
kts
5-day plot - Wave Height
WVHT
ft
5-day plot - Dominant Wave Period
DPD
sec
5-day plot - Average Wave Period
APD
sec
5-day plot - Mean Wave Direction
MWD
 
5-day plot - Atmospheric Pressure
PRES
in
5-day plot - Pressure Tendency
PTDY
in
5-day plot - Air Temperature
ATMP
°F
5-day plot - Water Temperature
WTMP
°F
5-day plot - Dew Point
DEWP
°F
5-day plot - Salinity
SAL
psu
5-day plot - Visibility
VIS
nmi
5-day plot - Tide (above MLLW)
TIDE
ft
2024-06-24 02:50 am S 6 9----29.94- 81.5- 73.9---
2024-06-24 02:40 am S 7 9----29.94- 81.5- 73.8---
2024-06-24 02:30 am S 7 10----29.95- 81.7- 74.1---
2024-06-24 02:20 am S 8 10----29.95- 81.7- 73.8---
2024-06-24 02:10 am S 9 10----29.96- 81.5- 73.6---
2024-06-24 02:00 amSSE 8 10----29.96+0.00 81.7- 73.8---
2024-06-24 01:50 amSSE 8 9----29.96-------
2024-06-24 01:40 amSSE 8 9----29.96- 81.7- 73.8---
2024-06-24 01:30 am S 7 9----29.96- 81.9- 73.9---
2024-06-24 01:20 am S 7 8----29.97- 81.9- 73.2---
2024-06-24 01:10 amSSE 6 8----29.96- 81.9- 73.0---
2024-06-24 01:00 am S 6 9----29.96+0.00 81.9- 72.9---
2024-06-24 12:50 am S 7 9----29.96- 81.3- 73.2---
2024-06-24 12:40 am S 8 10----29.96- 81.3- 74.1---
2024-06-24 12:30 am S 8 10----29.96- 81.3- 74.7---
2024-06-24 12:20 am S 9 10----29.96- 81.3- 75.0---
2024-06-24 12:10 am S 8 9----29.96- 81.5- 75.2---
2024-06-24 12:00 am S 7 9----29.96+0.00 81.5- 74.7---
2024-06-23 11:50 pm S 8 10----29.96- 81.9- 74.5---
2024-06-23 11:40 pm S 8 9----29.96- 81.7- 73.4---
2024-06-23 11:30 pm S 9 11----29.96- 81.5- 73.4---
2024-06-23 11:20 pm S 9 10----29.96- 81.5- 73.8---
2024-06-23 11:10 pm S 10 11----29.96- 81.1- 74.1---
2024-06-23 11:00 pm S 9 11----29.96+0.00 81.1- 75.0---
2024-06-23 10:50 pm S 9 12----29.96-------
2024-06-23 10:40 pm S 10 12----29.96- 81.0- 75.4---
2024-06-23 10:30 pm S 10 12----29.96- 81.1- 75.7---
2024-06-23 10:20 pm S 12 14----29.96- 81.0- 75.4---
2024-06-23 10:10 pm S 13 15----29.96- 81.1- 75.4---
2024-06-23 10:00 pm S 13 15----29.96+0.00 81.0- 75.2---
2024-06-23 09:50 pm S 13 15----29.96- 81.0- 75.2---
2024-06-23 09:40 pm S 14 17----29.96- 81.0- 75.0---
2024-06-23 09:30 pm S 14 17----29.96- 81.3- 75.4---
2024-06-23 09:20 pmSSE 14 17----29.96- 81.1- 75.2---
2024-06-23 09:10 pm S 15 17----29.97- 81.3- 75.4---
2024-06-23 09:00 pmSSE 14 17----29.96+0.00 81.5- 75.4---
2024-06-23 08:50 pmSSE 13 17----29.96- 81.7- 75.2---
2024-06-23 08:40 pm SE 14 16----29.96- 80.8- 74.1---
2024-06-23 08:30 pm SE 15 18----29.97- 82.4- 75.4---
2024-06-23 08:20 pm SE 12 14----29.97- 82.8- 75.0---
2024-06-23 08:10 pm SE 12 14----29.96- 82.8- 74.7---
2024-06-23 08:00 pm SE 12 14----29.96+0.00 82.6- 73.9---
2024-06-23 07:50 pm SE 12 14----29.96- 82.6- 74.1---
2024-06-23 07:40 pmSSE 11 12----29.96- 82.8- 74.1---
2024-06-23 07:30 pm SE 11 12----29.96- 82.2- 73.0---
2024-06-23 07:20 pm SE 11 13----29.96- 82.4- 74.5---
2024-06-23 07:10 pmSSE 11 13----29.96- 82.6- 74.5---
2024-06-23 07:00 pm SE 10 12----29.96+0.00 82.6- 74.1---
2024-06-23 06:50 pm SE 10 13----29.96- 82.4- 73.8---
2024-06-23 06:40 pm SE 11 12----29.96- 82.4- 74.5---
2024-06-23 06:30 pm SE 11 14----29.96- 82.4- 74.1---
2024-06-23 06:20 pmSSE 12 13----29.96- 82.2- 74.3---
2024-06-23 06:10 pmSSE 12 14----29.96- 82.2- 74.7---
2024-06-23 06:00 pm SE 11 13----29.96-0.02 82.2- 74.7---
2024-06-23 05:50 pm SE 11 12----29.96- 82.0- 74.3---
2024-06-23 05:40 pm SE 10 12----29.96- 82.0- 74.1---
2024-06-23 05:30 pm SE 10 12----29.96- 82.0- 74.3---
2024-06-23 05:20 pmESE 10 12----29.95- 81.9- 74.1---
2024-06-23 05:10 pmESE 10 13----29.96- 82.0- 73.9---
2024-06-23 05:00 pm SE 11 12----29.96-0.03 81.9- 73.0---
2024-06-23 04:50 pm SE 12 13----29.96- 81.5- 73.0---
2024-06-23 04:40 pm SE 12 14----29.97- 81.7- 74.1---
2024-06-23 04:30 pm SE 11 14----29.97- 81.5- 74.1---
2024-06-23 04:20 pm SE 12 14----29.97- 81.3- 73.9---
2024-06-23 04:10 pm SE 12 13----29.97- 81.1- 74.1---
2024-06-23 04:00 pmESE 11 12----29.96-0.03 81.1- 74.3---
2024-06-23 03:50 pmESE 11 13----29.97- 81.3- 74.5---
2024-06-23 03:40 pm SE 12 14----29.97- 81.1- 74.1---
2024-06-23 03:20 pm SE 11 14----29.97-------
2024-06-23 03:10 pmESE 11 13----29.97- 81.3- 73.8---
2024-06-23 03:00 pmESE 9 12----29.98-0.05 81.1- 73.8---
2024-06-23 02:50 pmESE 9 10----29.98- 81.0- 73.9---
2024-06-23 02:40 pmESE 9 11----29.98- 81.0- 73.9---
2024-06-23 02:30 pmESE 9 10----29.99- 81.0- 73.8---
2024-06-23 02:20 pmESE 8 10----29.99- 80.8- 73.6---
2024-06-23 02:10 pmESE 8 9----29.99- 80.8- 73.6---
2024-06-23 02:00 pmESE 8 9----29.99-0.03 80.4- 73.0---
2024-06-23 01:50 pmESE 8 10----29.99- 80.2- 73.0---
2024-06-23 01:40 pm E 8 10----29.99- 80.2- 73.2---
2024-06-23 01:30 pm E 10 12----29.99- 79.9- 72.9---
2024-06-23 01:20 pm E 11 13----29.99- 80.1- 72.9---
2024-06-23 01:10 pm E 11 12----29.99- 79.9- 72.5---
2024-06-23 01:00 pm E 10 12----30.00-0.02 79.5- 72.5---
2024-06-23 12:50 pm E 10 11----30.00- 79.2- 72.7---
2024-06-23 12:40 pmESE 9 11----30.00- 79.3- 72.9---
2024-06-23 12:30 pmESE 7 9----30.01- 79.3- 72.3---
2024-06-23 12:20 pm E 7 8----30.01- 79.0- 71.8---
2024-06-23 12:10 pm E 7 8----30.02- 78.6- 72.0---
2024-06-23 12:00 pm E 7 8----30.02+0.02 78.4- 72.3---
2024-06-23 11:50 am E 7 9----30.03- 78.4- 73.0---
2024-06-23 11:40 amENE 8 9----30.03- 78.4- 72.9---
2024-06-23 11:30 am E 8 10----30.03- 78.4- 72.3---
2024-06-23 11:20 amENE 8 11----30.03- 78.4- 72.1---
2024-06-23 11:10 amNNE 9 10----30.02- 78.3- 72.1---
2024-06-23 11:00 am NE 9 10----30.02+0.07 77.7- 71.8---
2024-06-23 10:50 am NE 10 11----30.02- 77.7- 72.5---
2024-06-23 10:40 am NE 10 12----30.02- 78.1- 72.7---
2024-06-23 10:30 amENE 9 12----30.02- 78.6- 72.9---
2024-06-23 10:20 amENE 10 11----30.02- 78.3- 72.3---
2024-06-23 10:10 am NE 11 13----30.02- 77.9- 72.0---
2024-06-23 10:00 am NE 12 14----30.02+0.04 77.5- 72.3---
2024-06-23 09:50 am NE 14 15----30.02- 77.4- 72.0---
2024-06-23 09:40 am NE 14 16----30.02- 77.5- 72.3---
2024-06-23 09:30 am NE 13 15----30.01- 77.7- 72.9---
2024-06-23 09:20 amENE 11 14----30.01- 77.9- 73.2---
2024-06-23 09:10 amENE 10 11----30.01- 78.3- 74.1---
2024-06-23 09:00 am E 11 12----30.00+0.03 78.1- 73.8---
2024-06-23 08:50 amENE 10 12----30.00- 77.7- 73.4---
2024-06-23 08:40 amENE 12 13----30.00- 77.5- 73.2---
2024-06-23 08:20 amENE 11 13----30.00-------
2024-06-23 08:10 am E 10 12----30.00- 78.3- 74.3---
2024-06-23 08:00 am-------30.00-0.01------
2024-06-23 07:50 am E 11 12----29.99- 77.9- 73.0---
2024-06-23 07:40 am E 9 10----29.98- 77.2- 72.7---
2024-06-23 07:30 amENE 11 13----29.98- 77.4- 73.4---
2024-06-23 07:20 amENE 11 14----29.98- 77.4- 73.4---
2024-06-23 07:10 am E 9 11----29.98- 77.0- 72.9---
2024-06-23 07:00 amESE 8 10----29.98+0.01 76.8- 72.1---
2024-06-23 06:50 am SE 11 12----29.98- 76.8- 72.0---
2024-06-23 06:40 amESE 13 14----29.98- 77.0- 72.5---
2024-06-23 06:30 amESE 13 15----29.98- 77.0- 72.1---
2024-06-23 06:20 amESE 12 17----29.98- 77.2- 72.7---
2024-06-23 06:10 amSSE 16 22----29.98- 77.0- 72.9---
2024-06-23 06:00 am S 19 23----29.97-0.02 78.1- 73.8---
2024-06-23 05:50 am SE 13 22----29.97- 80.2- 74.5---
2024-06-23 05:40 amENE 5 8----29.97- 81.7- 75.6---
2024-06-23 05:30 am E 7 9----29.98- 81.5- 75.4---
2024-06-23 05:20 am E 7 9----29.98- 81.5- 75.6---
2024-06-23 05:10 amENE 7 8----29.97- 81.5- 75.7---
2024-06-23 05:00 amENE 6 7----29.97-0.03 81.1- 75.4---
2024-06-23 04:50 amENE 6 7----29.96- 81.3- 75.7---
2024-06-23 04:40 amENE 5 7----29.96- 81.1- 75.6---
2024-06-23 04:30 amENE 6 8----29.96- 81.1- 75.6---
2024-06-23 04:20 amENE 6 8----29.96- 81.1- 75.6---
2024-06-23 04:10 amENE 5 6----29.96- 81.1- 75.6---
2024-06-23 04:00 amENE 5 6----29.96-0.03 81.0- 75.4---
2024-06-23 03:50 am NE 5 7----29.97- 81.0- 75.4---
2024-06-23 03:40 am NE 6 7----29.97- 81.0- 75.2---
2024-06-23 03:30 am NE 6 8----29.98- 80.8- 75.2---
2024-06-23 03:20 am NE 6 8----29.98- 80.6- 75.2---
2024-06-23 03:10 am NE 5 6----29.98- 80.6- 75.6---
2024-06-23 03:00 am NE 4 5----29.99-0.01 80.4- 75.6---
2024-06-23 02:50 amNNE 2 4----29.99- 80.2- 75.4---